Time,TemperatureF,DewpointF,PressureIn,WindDirection,WindDirectionDegrees,WindSpeedMPH,WindSpeedGustMPH,Humidity,HourlyPrecipIn,Conditions,Clouds,dailyrainin,SoftwareType,DateUTC
2013-07-31 00:01:00,76.2,72.4,30.07,West,266,0.0,0.0,88,0.00,,SKC,0.00,VWS V14.01,2013-07-31 05:01:00,
2013-07-31 00:07:00,76.1,72.3,30.07,West,266,0.0,0.0,88,0.00,,SKC,0.00,VWS V14.01,2013-07-31 05:07:00,
2013-07-31 00:12:00,76.0,72.2,30.07,West,266,0.0,0.0,88,0.00,,SKC,0.00,VWS V14.01,2013-07-31 05:12:00,
2013-07-31 00:17:00,75.9,72.1,30.07,West,266,0.0,0.0,88,0.00,,SKC,0.00,VWS V14.01,2013-07-31 05:17:00,
2013-07-31 00:22:00,75.9,72.1,30.07,West,266,0.0,0.0,88,0.00,,SKC,0.00,VWS V14.01,2013-07-31 05:22:00,
2013-07-31 00:27:00,75.8,72.0,30.07,West,266,0.0,0.0,88,0.00,,SKC,0.00,VWS V14.01,2013-07-31 05:27:00,
2013-07-31 00:32:00,75.9,71.8,30.07,West,266,0.0,0.0,87,0.00,,SKC,0.00,VWS V14.01,2013-07-31 05:32:00,
2013-07-31 00:36:00,75.8,71.7,30.07,West,266,0.0,0.0,87,0.00,,SKC,0.00,VWS V14.01,2013-07-31 05:36:00,
2013-07-31 00:42:00,75.8,72.0,30.07,West,266,0.0,0.0,88,0.00,,SKC,0.00,VWS V14.01,2013-07-31 05:42:00,
2013-07-31 00:47:00,75.7,71.9,30.07,West,266,0.0,0.0,88,0.00,,SKC,0.00,VWS V14.01,2013-07-31 05:47:00,
2013-07-31 00:52:00,75.7,71.6,30.07,West,266,0.0,0.0,87,0.00,,SKC,0.00,VWS V14.01,2013-07-31 05:52:00,
2013-07-31 00:57:00,75.7,71.6,30.07,West,266,0.0,0.0,87,0.00,,SKC,0.00,VWS V14.01,2013-07-31 05:57:00,
2013-07-31 01:02:00,75.8,71.7,30.07,West,266,0.0,0.0,87,0.00,,SKC,0.00,VWS V14.01,2013-07-31 06:02:00,
2013-07-31 01:07:00,75.7,71.6,30.07,West,266,0.0,0.0,87,0.00,,SKC,0.00,VWS V14.01,2013-07-31 06:07:00,
2013-07-31 01:12:00,75.7,71.6,30.07,West,266,0.0,0.0,87,0.00,,SKC,0.00,VWS V14.01,2013-07-31 06:12:00,
2013-07-31 01:17:00,75.7,71.6,30.07,West,266,0.0,0.0,87,0.00,,SKC,0.00,VWS V14.01,2013-07-31 06:17:00,
2013-07-31 01:22:00,75.8,71.7,30.07,West,266,0.0,0.0,87,0.00,,SKC,0.00,VWS V14.01,2013-07-31 06:22:00,
2013-07-31 01:27:00,75.8,71.3,30.07,West,266,0.0,1.0,86,0.00,,SKC,0.00,VWS V14.01,2013-07-31 06:27:00,
2013-07-31 01:32:00,75.8,71.7,30.06,West,266,0.0,0.0,87,0.00,,SKC,0.00,VWS V14.01,2013-07-31 06:32:00,
2013-07-31 01:37:00,75.8,71.7,30.06,West,266,0.0,0.0,87,0.00,,SKC,0.00,VWS V14.01,2013-07-31 06:37:00,
2013-07-31 01:42:00,75.7,71.6,30.06,West,266,0.0,0.0,87,0.00,,SKC,0.00,VWS V14.01,2013-07-31 06:42:00,
2013-07-31 01:47:00,75.6,71.5,30.06,West,266,0.0,0.0,87,0.00,,SKC,0.00,VWS V14.01,2013-07-31 06:47:00,
2013-07-31 01:52:00,75.5,71.4,30.06,West,266,0.0,0.0,87,0.00,,SKC,0.00,VWS V14.01,2013-07-31 06:52:00,
2013-07-31 01:57:00,75.5,71.4,30.06,West,266,0.0,0.0,87,0.00,,SKC,0.00,VWS V14.01,2013-07-31 06:57:00,
2013-07-31 02:02:00,75.5,71.4,30.06,West,266,0.0,0.0,87,0.00,,SKC,0.00,VWS V14.01,2013-07-31 07:02:00,
2013-07-31 02:07:00,75.4,71.3,30.06,West,266,0.0,0.0,87,0.00,,SKC,0.00,VWS V14.01,2013-07-31 07:07:00,
2013-07-31 02:12:00,75.4,71.3,30.06,West,266,0.0,0.0,87,0.00,,SKC,0.00,VWS V14.01,2013-07-31 07:12:00,
2013-07-31 02:17:00,75.4,70.9,30.06,West,266,0.0,0.0,86,0.00,,SKC,0.00,VWS V14.01,2013-07-31 07:17:00,
2013-07-31 02:22:00,75.3,70.8,30.06,West,266,0.0,0.0,86,0.00,,SKC,0.00,VWS V14.01,2013-07-31 07:22:00,
2013-07-31 02:27:00,75.4,70.9,30.05,West,266,0.0,0.0,86,0.00,,SKC,0.00,VWS V14.01,2013-07-31 07:27:00,
2013-07-31 02:32:00,75.4,70.9,30.05,West,266,0.0,0.0,86,0.00,,SKC,0.00,VWS V14.01,2013-07-31 07:32:00,
2013-07-31 02:37:00,75.3,70.8,30.05,West,266,0.0,0.0,86,0.00,,SKC,0.00,VWS V14.01,2013-07-31 07:37:00,
2013-07-31 02:42:00,75.2,70.7,30.05,West,266,0.0,0.0,86,0.00,,SKC,0.00,VWS V14.01,2013-07-31 07:42:00,
2013-07-31 02:47:00,75.2,70.7,30.05,West,266,0.0,0.0,86,0.00,,SKC,0.00,VWS V14.01,2013-07-31 07:47:00,
2013-07-31 02:52:00,75.3,70.8,30.05,West,266,0.0,0.0,86,0.00,,SKC,0.00,VWS V14.01,2013-07-31 07:52:00,
2013-07-31 02:57:00,75.2,70.7,30.05,West,266,0.0,0.0,86,0.00,,SKC,0.00,VWS V14.01,2013-07-31 07:57:00,
2013-07-31 03:02:00,75.1,71.0,30.05,West,266,0.0,0.0,87,0.00,,SKC,0.00,VWS V14.01,2013-07-31 08:02:00,
2013-07-31 03:07:00,74.9,70.8,30.05,West,266,0.0,0.0,87,0.00,,SKC,0.00,VWS V14.01,2013-07-31 08:07:00,
2013-07-31 03:12:00,74.9,70.8,30.05,West,266,0.0,0.0,87,0.00,,SKC,0.00,VWS V14.01,2013-07-31 08:12:00,
2013-07-31 03:17:00,74.9,70.8,30.05,West,266,0.0,0.0,87,0.00,,SKC,0.00,VWS V14.01,2013-07-31 08:17:00,
2013-07-31 03:22:00,74.8,70.3,30.05,West,266,0.0,0.0,86,0.00,,SKC,0.00,VWS V14.01,2013-07-31 08:22:00,
2013-07-31 03:27:00,74.9,70.4,30.05,West,266,0.0,0.0,86,0.00,,SKC,0.00,VWS V14.01,2013-07-31 08:27:00,
2013-07-31 03:32:00,74.9,70.4,30.05,West,266,0.0,0.0,86,0.00,,SKC,0.00,VWS V14.01,2013-07-31 08:32:00,
2013-07-31 03:37:00,75.0,70.5,30.04,West,266,0.0,0.0,86,0.00,,SKC,0.00,VWS V14.01,2013-07-31 08:37:00,
2013-07-31 03:42:00,75.0,70.5,30.04,West,266,0.0,0.0,86,0.00,,SKC,0.00,VWS V14.01,2013-07-31 08:42:00,
2013-07-31 03:47:00,75.0,70.5,30.04,West,266,0.0,0.0,86,0.00,,SKC,0.00,VWS V14.01,2013-07-31 08:47:00,
2013-07-31 03:52:00,74.9,70.4,30.04,West,266,0.0,0.0,86,0.00,,SKC,0.00,VWS V14.01,2013-07-31 08:52:00,
2013-07-31 03:57:00,74.9,70.4,30.04,West,266,0.0,0.0,86,0.00,,SKC,0.00,VWS V14.01,2013-07-31 08:57:00,
2013-07-31 04:02:00,74.9,70.4,30.05,West,266,0.0,0.0,86,0.00,,SKC,0.00,VWS V14.01,2013-07-31 09:02:00,
2013-07-31 04:07:00,75.0,70.5,30.04,West,266,0.0,0.0,86,0.00,,SKC,0.00,VWS V14.01,2013-07-31 09:07:00,
2013-07-31 04:12:00,75.1,70.6,30.05,West,266,0.0,0.0,86,0.00,,SKC,0.00,VWS V14.01,2013-07-31 09:12:00,
2013-07-31 04:17:00,75.1,70.6,30.04,West,266,0.0,0.0,86,0.00,,SKC,0.00,VWS V14.01,2013-07-31 09:17:00,
2013-07-31 04:22:00,75.2,70.7,30.04,West,266,0.0,0.0,86,0.00,,SKC,0.00,VWS V14.01,2013-07-31 09:22:00,
2013-07-31 04:27:00,75.2,70.7,30.05,West,266,0.0,0.0,86,0.00,,SKC,0.00,VWS V14.01,2013-07-31 09:27:00,
2013-07-31 04:32:00,75.2,70.7,30.04,West,266,0.0,0.0,86,0.00,,SKC,0.00,VWS V14.01,2013-07-31 09:32:00,
2013-07-31 04:37:00,75.3,70.8,30.05,West,266,0.0,0.0,86,0.00,,SKC,0.00,VWS V14.01,2013-07-31 09:37:00,
2013-07-31 04:42:00,75.3,70.8,30.05,West,266,0.0,0.0,86,0.00,,SKC,0.00,VWS V14.01,2013-07-31 09:42:00,
2013-07-31 04:47:00,75.3,70.8,30.04,West,266,0.0,0.0,86,0.00,,SKC,0.00,VWS V14.01,2013-07-31 09:47:00,
2013-07-31 04:52:00,75.3,70.8,30.05,West,266,0.0,0.0,86,0.00,,SKC,0.00,VWS V14.01,2013-07-31 09:52:00,
2013-07-31 04:57:00,75.3,70.8,30.05,West,266,0.0,0.0,86,0.00,,SKC,0.00,VWS V14.01,2013-07-31 09:57:00,
2013-07-31 05:02:00,75.3,70.8,30.05,West,266,0.0,0.0,86,0.00,,SKC,0.00,VWS V14.01,2013-07-31 10:02:00,
2013-07-31 05:07:00,75.3,70.8,30.05,West,266,0.0,0.0,86,0.00,,SKC,0.00,VWS V14.01,2013-07-31 10:07:00,
2013-07-31 05:12:00,75.3,70.8,30.05,West,266,0.0,0.0,86,0.00,,SKC,0.00,VWS V14.01,2013-07-31 10:12:00,
2013-07-31 05:17:00,75.4,70.9,30.05,West,266,0.0,0.0,86,0.00,,SKC,0.00,VWS V14.01,2013-07-31 10:17:00,
2013-07-31 05:22:00,75.4,70.9,30.05,West,266,0.0,0.0,86,0.00,,SKC,0.00,VWS V14.01,2013-07-31 10:22:00,
2013-07-31 05:27:00,75.4,70.9,30.05,West,266,0.0,0.0,86,0.00,,SKC,0.00,VWS V14.01,2013-07-31 10:27:00,
2013-07-31 05:32:00,75.5,71.0,30.05,West,266,0.0,0.0,86,0.00,,SKC,0.00,VWS V14.01,2013-07-31 10:32:00,
2013-07-31 05:37:00,75.5,71.0,30.05,West,266,0.0,0.0,86,0.00,,SKC,0.00,VWS V14.01,2013-07-31 10:37:00,
2013-07-31 05:42:00,75.5,71.0,30.05,West,266,0.0,0.0,86,0.00,,SKC,0.00,VWS V14.01,2013-07-31 10:42:00,
2013-07-31 05:47:00,75.6,71.1,30.05,West,266,0.0,0.0,86,0.00,,SKC,0.00,VWS V14.01,2013-07-31 10:47:00,
2013-07-31 05:52:00,75.6,71.1,30.06,West,266,0.0,0.0,86,0.00,,SKC,0.00,VWS V14.01,2013-07-31 10:52:00,
2013-07-31 05:57:00,75.6,71.1,30.06,West,266,0.0,0.0,86,0.00,,SKC,0.00,VWS V14.01,2013-07-31 10:57:00,
2013-07-31 06:02:00,75.6,71.1,30.06,West,266,0.0,0.0,86,0.00,,SKC,0.00,VWS V14.01,2013-07-31 11:02:00,
2013-07-31 06:07:00,75.6,71.1,30.06,West,266,0.0,0.0,86,0.00,,SKC,0.00,VWS V14.01,2013-07-31 11:07:00,
2013-07-31 06:12:00,75.6,71.1,30.06,West,266,0.0,0.0,86,0.00,,SKC,0.00,VWS V14.01,2013-07-31 11:12:00,
2013-07-31 06:17:00,75.5,71.0,30.06,West,266,0.0,0.0,86,0.00,,SKC,0.00,VWS V14.01,2013-07-31 11:17:00,
2013-07-31 06:22:00,75.5,71.0,30.06,South,190,0.0,0.0,86,0.00,,SKC,0.00,VWS V14.01,2013-07-31 11:22:00,
2013-07-31 06:27:00,75.5,71.0,30.06,SSW,195,0.0,0.0,86,0.00,,SKC,0.00,VWS V14.01,2013-07-31 11:27:00,
2013-07-31 06:32:00,75.5,71.0,30.06,ESE,103,0.0,0.0,86,0.00,,SKC,0.00,VWS V14.01,2013-07-31 11:32:00,
2013-07-31 06:37:00,75.5,71.0,30.06,SSE,161,0.0,0.0,86,0.00,,SKC,0.00,VWS V14.01,2013-07-31 11:37:00,
2013-07-31 06:42:00,75.6,71.1,30.06,SSE,161,0.0,0.0,86,0.00,,SKC,0.00,VWS V14.01,2013-07-31 11:42:00,
2013-07-31 06:47:00,75.6,71.1,30.06,SSE,161,0.0,0.0,86,0.00,,SKC,0.00,VWS V14.01,2013-07-31 11:47:00,
2013-07-31 06:52:00,75.8,71.3,30.06,SSE,161,0.0,0.0,86,0.00,,SKC,0.00,VWS V14.01,2013-07-31 11:52:00,
2013-07-31 06:57:00,75.9,71.4,30.06,SSE,161,0.0,0.0,86,0.00,,SKC,0.00,VWS V14.01,2013-07-31 11:57:00,
2013-07-31 07:02:00,76.0,71.5,30.06,SSE,150,0.0,0.0,86,0.00,,SKC,0.00,VWS V14.01,2013-07-31 12:02:00,
2013-07-31 07:07:00,76.2,71.7,30.06,SSE,149,0.0,0.0,86,0.00,,SKC,0.00,VWS V14.01,2013-07-31 12:07:00,
2013-07-31 07:12:00,76.4,71.9,30.06,ESE,111,0.0,0.0,86,0.00,,SKC,0.00,VWS V14.01,2013-07-31 12:12:00,
2013-07-31 07:17:00,76.5,72.0,30.06,ESE,105,0.0,1.0,86,0.00,,SKC,0.00,VWS V14.01,2013-07-31 12:17:00,
2013-07-31 07:22:00,76.7,72.2,30.06,ESE,105,0.0,1.0,86,0.00,,SKC,0.00,VWS V14.01,2013-07-31 12:22:00,
2013-07-31 07:27:00,77.0,72.5,30.06,ESE,103,0.0,1.0,86,0.00,,SKC,0.00,VWS V14.01,2013-07-31 12:27:00,
2013-07-31 07:32:00,77.3,72.8,30.07,East,101,0.0,0.0,86,0.00,,SKC,0.00,VWS V14.01,2013-07-31 12:32:00,
2013-07-31 07:37:00,77.6,73.1,30.06,ESE,103,0.0,0.0,86,0.00,,SKC,0.00,VWS V14.01,2013-07-31 12:37:00,
2013-07-31 07:42:00,77.9,73.4,30.06,NE,40,0.0,0.0,86,0.00,,SKC,0.00,VWS V14.01,2013-07-31 12:42:00,
2013-07-31 07:47:00,78.1,73.6,30.06,NE,40,0.0,0.0,86,0.00,,SKC,0.00,VWS V14.01,2013-07-31 12:47:00,
2013-07-31 07:52:00,78.3,73.8,30.06,NE,40,0.0,0.0,86,0.00,,SKC,0.00,VWS V14.01,2013-07-31 12:52:00,
2013-07-31 07:57:00,78.6,74.1,30.07,NE,42,0.0,1.0,86,0.00,,SKC,0.00,VWS V14.01,2013-07-31 12:57:00,
2013-07-31 08:02:00,79.0,74.5,30.07,NE,42,0.0,0.0,86,0.00,,SKC,0.00,VWS V14.01,2013-07-31 13:02:00,
2013-07-31 08:07:00,79.3,74.8,30.07,East,93,0.0,0.0,86,0.00,,SKC,0.00,VWS V14.01,2013-07-31 13:07:00,
2013-07-31 08:12:00,79.4,74.8,30.07,SSE,150,0.0,1.0,86,0.00,,SKC,0.00,VWS V14.01,2013-07-31 13:12:00,
2013-07-31 08:17:00,79.4,74.8,30.07,SE,135,0.0,1.0,86,0.00,,SKC,0.00,VWS V14.01,2013-07-31 13:17:00,
2013-07-31 08:22:00,79.6,75.1,30.07,SE,135,0.0,1.0,86,0.00,,SKC,0.00,VWS V14.01,2013-07-31 13:22:00,
2013-07-31 08:27:00,80.0,75.4,30.08,SSE,167,0.0,1.0,86,0.00,,SKC,0.00,VWS V14.01,2013-07-31 13:27:00,
2013-07-31 08:32:00,80.3,75.7,30.07,SSE,167,0.0,0.0,86,0.00,,SKC,0.00,VWS V14.01,2013-07-31 13:32:00,
2013-07-31 08:37:00,80.6,76.0,30.08,SSE,167,0.0,1.0,86,0.00,,SKC,0.00,VWS V14.01,2013-07-31 13:37:00,
2013-07-31 08:42:00,81.0,76.8,30.08,SSE,167,1.0,1.0,87,0.00,,SKC,0.00,VWS V14.01,2013-07-31 13:42:00,
2013-07-31 08:47:00,81.2,77.7,30.08,WSW,256,1.0,5.0,89,0.00,,SKC,0.00,VWS V14.01,2013-07-31 13:47:00,
2013-07-31 08:52:00,81.5,78.6,30.08,West,264,0.0,6.0,91,0.00,,SKC,0.00,VWS V14.01,2013-07-31 13:52:00,
2013-07-31 08:57:00,81.8,78.9,30.08,West,269,3.0,6.0,91,0.00,,SKC,0.00,VWS V14.01,2013-07-31 13:57:00,
2013-07-31 09:02:00,82.0,79.1,30.08,West,271,3.0,4.0,91,0.00,,SKC,0.00,VWS V14.01,2013-07-31 14:02:00,
2013-07-31 09:07:00,82.2,79.3,30.08,West,281,4.0,6.0,91,0.00,,SKC,0.00,VWS V14.01,2013-07-31 14:07:00,
2013-07-31 09:12:00,82.3,79.1,30.08,WNW,284,1.0,8.0,90,0.00,,SKC,0.00,VWS V14.01,2013-07-31 14:12:00,
2013-07-31 09:17:00,82.4,79.2,30.08,WNW,294,4.0,8.0,90,0.00,,SKC,0.00,VWS V14.01,2013-07-31 14:17:00,
2013-07-31 09:22:00,82.5,78.9,30.08,West,278,5.0,9.0,89,0.00,,SKC,0.00,VWS V14.01,2013-07-31 14:22:00,
2013-07-31 09:27:00,82.7,79.1,30.08,NW,321,0.0,9.0,89,0.00,,SKC,0.00,VWS V14.01,2013-07-31 14:27:00,
2013-07-31 09:32:00,82.8,79.2,30.08,NW,321,0.0,7.0,89,0.00,,SKC,0.00,VWS V14.01,2013-07-31 14:32:00,
2013-07-31 09:38:00,82.9,79.3,30.08,NW,321,4.0,7.0,89,0.00,,SKC,0.00,VWS V14.01,2013-07-31 14:38:00,
2013-07-31 09:42:00,83.2,79.6,30.08,NNW,340,7.0,9.0,89,0.00,,SKC,0.00,VWS V14.01,2013-07-31 14:42:00,
2013-07-31 09:47:00,83.5,79.6,30.08,NW,325,6.0,9.0,88,0.00,,SKC,0.00,VWS V14.01,2013-07-31 14:47:00,
2013-07-31 09:52:00,83.9,79.6,30.08,NNW,329,6.0,9.0,87,0.00,,SKC,0.00,VWS V14.01,2013-07-31 14:52:00,
2013-07-31 09:57:00,84.3,79.7,30.07,NNW,338,4.0,9.0,86,0.00,,SKC,0.00,VWS V14.01,2013-07-31 14:57:00,
2013-07-31 10:02:00,84.5,79.1,30.07,NNW,346,6.0,7.0,84,0.00,,SKC,0.00,VWS V14.01,2013-07-31 15:02:00,
2013-07-31 10:03:00,84.5,79.1,30.07,NNW,346,6.0,7.0,84,0.00,,SKC,0.00,VWS V14.01,2013-07-31 15:03:00,
2013-07-31 10:08:00,84.4,79.0,30.07,NW,315,8.0,8.0,84,0.00,,SKC,0.00,VWS V14.01,2013-07-31 15:08:00,
2013-07-31 10:13:00,84.2,78.8,30.07,WNW,296,7.0,11.0,84,0.00,,SKC,0.00,VWS V14.01,2013-07-31 15:13:00,
2013-07-31 10:18:00,84.0,78.7,30.08,WNW,301,4.0,11.0,84,0.00,,SKC,0.00,VWS V14.01,2013-07-31 15:18:00,
2013-07-31 10:23:00,83.9,78.6,30.08,NW,312,7.0,11.0,84,0.00,,SKC,0.00,VWS V14.01,2013-07-31 15:23:00,
2013-07-31 10:28:00,83.9,78.9,30.08,NNW,333,4.0,11.0,85,0.00,,SKC,0.00,VWS V14.01,2013-07-31 15:28:00,
2013-07-31 10:33:00,84.1,79.1,30.08,NW,307,1.0,6.0,85,0.00,,SKC,0.00,VWS V14.01,2013-07-31 15:33:00,
2013-07-31 10:38:00,84.2,78.8,30.08,NW,321,6.0,9.0,84,0.00,,SKC,0.00,VWS V14.01,2013-07-31 15:38:00,
2013-07-31 10:43:00,84.1,78.8,30.08,WNW,301,7.0,10.0,84,0.00,,SKC,0.00,VWS V14.01,2013-07-31 15:43:00,
2013-07-31 10:48:00,83.9,78.6,30.08,WNW,298,5.0,10.0,84,0.00,,SKC,0.00,VWS V14.01,2013-07-31 15:48:00,
2013-07-31 10:53:00,84.1,78.4,30.08,NW,306,7.0,11.0,83,0.00,,SKC,0.00,VWS V14.01,2013-07-31 15:53:00,
2013-07-31 10:58:00,84.2,78.5,30.08,NW,321,4.0,13.0,83,0.00,,SKC,0.00,VWS V14.01,2013-07-31 15:58:00,
2013-07-31 11:03:00,84.3,78.6,30.08,West,262,6.0,11.0,83,0.00,,SKC,0.00,VWS V14.01,2013-07-31 16:03:00,
2013-07-31 11:07:00,84.4,79.0,30.08,NW,312,7.0,11.0,84,0.00,,SKC,0.00,VWS V14.01,2013-07-31 16:07:00,
2013-07-31 11:12:00,84.5,78.4,30.08,NW,317,5.0,11.0,82,0.00,,SKC,0.00,VWS V14.01,2013-07-31 16:12:00,
2013-07-31 11:17:00,84.6,78.1,30.08,NW,306,9.0,11.0,81,0.00,,SKC,0.00,VWS V14.01,2013-07-31 16:17:00,
2013-07-31 11:22:00,84.7,78.2,30.08,NW,306,4.0,11.0,81,0.00,,SKC,0.00,VWS V14.01,2013-07-31 16:22:00,
2013-07-31 11:27:00,84.7,77.8,30.07,West,272,8.0,11.0,80,0.00,,SKC,0.00,VWS V14.01,2013-07-31 16:27:00,
2013-07-31 11:32:00,84.6,78.1,30.07,WNW,298,7.0,10.0,81,0.00,,SKC,0.00,VWS V14.01,2013-07-31 16:32:00,
2013-07-31 11:37:00,84.6,78.1,30.07,WNW,284,5.0,10.0,81,0.00,,SKC,0.00,VWS V14.01,2013-07-31 16:37:00,
2013-07-31 11:42:00,84.7,78.2,30.07,NW,325,3.0,10.0,81,0.00,,SKC,0.00,VWS V14.01,2013-07-31 16:42:00,
2013-07-31 11:47:00,84.6,77.8,30.07,West,276,4.0,10.0,80,0.00,,SKC,0.00,VWS V14.01,2013-07-31 16:47:00,
2013-07-31 11:52:00,84.7,78.2,30.07,NW,305,6.0,10.0,81,0.00,,SKC,0.00,VWS V14.01,2013-07-31 16:52:00,
2013-07-31 11:57:00,84.6,78.5,30.07,NW,325,7.0,10.0,82,0.00,,SKC,0.00,VWS V14.01,2013-07-31 16:57:00,
2013-07-31 12:02:00,84.8,79.1,30.07,WNW,286,0.0,6.0,83,0.00,,SKC,0.00,VWS V14.01,2013-07-31 17:02:00,
2013-07-31 12:07:00,85.0,78.9,30.07,WNW,286,5.0,7.0,82,0.00,,SKC,0.00,VWS V14.01,2013-07-31 17:07:00,
2013-07-31 12:12:00,85.1,79.0,30.07,West,272,5.0,9.0,82,0.00,,SKC,0.00,VWS V14.01,2013-07-31 17:12:00,
2013-07-31 12:17:00,85.0,78.9,30.06,WSW,245,6.0,9.0,82,0.00,,SKC,0.00,VWS V14.01,2013-07-31 17:17:00,
2013-07-31 12:22:00,85.2,78.7,30.06,WNW,296,6.0,9.0,81,0.00,,SKC,0.00,VWS V14.01,2013-07-31 17:22:00,
2013-07-31 12:27:00,85.4,78.9,30.05,WSW,246,4.0,9.0,81,0.00,,SKC,0.00,VWS V14.01,2013-07-31 17:27:00,
2013-07-31 12:32:00,86.0,79.5,30.05,WSW,251,0.0,9.0,81,0.00,,SKC,0.00,VWS V14.01,2013-07-31 17:32:00,
2013-07-31 12:37:00,86.1,79.2,30.05,West,271,5.0,9.0,80,0.00,,SKC,0.00,VWS V14.01,2013-07-31 17:37:00,
2013-07-31 12:42:00,86.2,78.9,30.04,West,281,6.0,11.0,79,0.00,,SKC,0.00,VWS V14.01,2013-07-31 17:42:00,
2013-07-31 12:48:00,86.3,79.4,30.04,WNW,295,6.0,11.0,80,0.00,,SKC,0.00,VWS V14.01,2013-07-31 17:48:00,
2013-07-31 12:53:00,86.4,79.5,30.04,NW,305,4.0,12.0,80,0.00,,SKC,0.00,VWS V14.01,2013-07-31 17:53:00,
2013-07-31 12:58:00,86.5,79.2,30.04,WNW,284,5.0,12.0,79,0.00,,SKC,0.00,VWS V14.01,2013-07-31 17:58:00,
2013-07-31 13:03:00,87.2,80.3,30.04,NW,307,7.0,8.0,80,0.00,,SKC,0.00,VWS V14.01,2013-07-31 18:03:00,
2013-07-31 13:08:00,87.2,79.1,30.03,West,266,3.0,10.0,77,0.00,,SKC,0.00,VWS V14.01,2013-07-31 18:08:00,
2013-07-31 13:13:00,87.1,79.4,30.03,WSW,245,5.0,12.0,78,0.00,,SKC,0.00,VWS V14.01,2013-07-31 18:13:00,
2013-07-31 13:17:00,87.2,79.5,30.03,WNW,296,5.0,12.0,78,0.00,,SKC,0.00,VWS V14.01,2013-07-31 18:17:00,
2013-07-31 13:22:00,87.3,79.6,30.03,NW,315,8.0,12.0,78,0.00,,SKC,0.00,VWS V14.01,2013-07-31 18:22:00,
2013-07-31 13:28:00,87.0,78.9,30.03,NW,326,4.0,12.0,77,0.00,,SKC,0.00,VWS V14.01,2013-07-31 18:28:00,
2013-07-31 13:33:00,87.2,79.5,30.02,West,259,4.0,6.0,78,0.00,,SKC,0.00,VWS V14.01,2013-07-31 18:33:00,
2013-07-31 13:38:00,87.5,79.8,30.02,NNW,328,8.0,11.0,78,0.00,,SKC,0.00,VWS V14.01,2013-07-31 18:38:00,
2013-07-31 13:43:00,88.0,79.9,30.03,WNW,290,7.0,11.0,77,0.00,,SKC,0.00,VWS V14.01,2013-07-31 18:43:00,
2013-07-31 13:48:00,88.3,79.8,30.02,West,267,1.0,11.0,76,0.00,,SKC,0.00,VWS V14.01,2013-07-31 18:48:00,
2013-07-31 13:53:00,88.5,80.4,30.02,NW,308,0.0,11.0,77,0.00,,SKC,0.00,VWS V14.01,2013-07-31 18:53:00,
2013-07-31 13:57:00,88.0,78.7,30.02,WNW,285,7.0,11.0,74,0.00,,SKC,0.00,VWS V14.01,2013-07-31 18:57:00,
2013-07-31 14:02:00,87.9,80.2,30.02,West,267,7.0,7.0,78,0.00,,SKC,0.00,VWS V14.01,2013-07-31 19:02:00,
2013-07-31 14:07:00,87.8,79.3,30.02,West,275,5.0,9.0,76,0.00,,SKC,0.00,VWS V14.01,2013-07-31 19:07:00,
2013-07-31 14:12:00,87.6,79.1,30.02,NW,304,6.0,9.0,76,0.00,,SKC,0.00,VWS V14.01,2013-07-31 19:12:00,
2013-07-31 14:17:00,87.9,79.8,30.01,WNW,283,6.0,9.0,77,0.00,,SKC,0.00,VWS V14.01,2013-07-31 19:17:00,
2013-07-31 14:22:00,88.1,77.9,30.01,NW,313,7.0,9.0,72,0.00,,SKC,0.00,VWS V14.01,2013-07-31 19:22:00,
2013-07-31 14:27:00,87.8,77.2,30.02,NW,319,7.0,10.0,71,0.00,,SKC,0.00,VWS V14.01,2013-07-31 19:27:00,
2013-07-31 14:32:00,87.3,78.0,30.01,NW,311,5.0,9.0,74,0.00,,SKC,0.00,VWS V14.01,2013-07-31 19:32:00,
2013-07-31 14:37:00,86.5,78.4,30.01,WNW,299,4.0,9.0,77,0.00,,SKC,0.00,VWS V14.01,2013-07-31 19:37:00,
2013-07-31 14:42:00,86.1,78.8,30.01,WNW,299,1.0,9.0,79,0.00,,SKC,0.00,VWS V14.01,2013-07-31 19:42:00,
2013-07-31 14:48:00,86.0,78.7,30.01,WNW,299,0.0,9.0,79,0.00,,SKC,0.00,VWS V14.01,2013-07-31 19:48:00,
2013-07-31 14:53:00,85.9,79.0,30.01,WNW,299,1.0,9.0,80,0.00,,SKC,0.00,VWS V14.01,2013-07-31 19:53:00,
2013-07-31 14:58:00,85.6,79.1,30.01,WNW,299,1.0,9.0,81,0.00,,SKC,0.00,VWS V14.01,2013-07-31 19:58:00,
2013-07-31 15:03:00,85.3,79.2,30.00,WNW,300,1.0,2.0,82,0.00,,SKC,0.00,VWS V14.01,2013-07-31 20:03:00,
2013-07-31 15:08:00,85.1,79.4,30.00,WNW,300,0.0,4.0,83,0.00,,SKC,0.00,VWS V14.01,2013-07-31 20:08:00,
2013-07-31 15:13:00,84.8,79.4,30.00,WNW,300,0.0,4.0,84,0.00,,SKC,0.00,VWS V14.01,2013-07-31 20:13:00,
2013-07-31 15:18:00,84.3,78.9,30.00,WNW,300,0.0,4.0,84,0.00,,SKC,0.00,VWS V14.01,2013-07-31 20:18:00,
2013-07-31 15:23:00,84.0,79.0,30.01,WNW,300,0.0,4.0,85,0.00,,SKC,0.00,VWS V14.01,2013-07-31 20:23:00,
2013-07-31 15:28:00,83.2,76.8,30.01,ENE,61,0.0,8.0,81,0.00,,SKC,0.00,VWS V14.01,2013-07-31 20:28:00,
2013-07-31 15:33:00,82.5,76.8,30.00,ENE,61,0.0,4.0,83,0.00,,SKC,0.00,VWS V14.01,2013-07-31 20:33:00,
2013-07-31 15:38:00,82.0,76.0,30.00,ENE,61,0.0,4.0,82,0.00,,SKC,0.00,VWS V14.01,2013-07-31 20:38:00,
2013-07-31 15:43:00,81.7,76.0,29.99,ENE,61,0.0,4.0,83,0.00,,SKC,0.00,VWS V14.01,2013-07-31 20:43:00,
2013-07-31 15:48:00,81.5,75.8,29.99,ENE,61,0.0,4.0,83,0.00,,SKC,0.00,VWS V14.01,2013-07-31 20:48:00,
2013-07-31 15:53:00,81.5,76.6,29.99,ENE,61,0.0,4.0,85,0.00,,SKC,0.00,VWS V14.01,2013-07-31 20:53:00,
2013-07-31 15:58:00,81.4,76.1,30.00,ENE,61,0.0,4.0,84,0.00,,SKC,0.00,VWS V14.01,2013-07-31 20:58:00,
2013-07-31 16:02:00,81.2,75.9,30.00,ENE,61,0.0,1.0,84,0.00,,SKC,0.00,VWS V14.01,2013-07-31 21:02:00,
2013-07-31 16:07:00,81.1,76.2,30.00,ENE,61,0.0,1.0,85,0.00,,SKC,0.00,VWS V14.01,2013-07-31 21:07:00,
2013-07-31 16:12:00,81.1,76.2,30.00,ENE,61,0.0,1.0,85,0.00,,SKC,0.00,VWS V14.01,2013-07-31 21:12:00,
2013-07-31 16:17:00,81.1,76.5,30.00,ENE,61,0.0,1.0,86,0.00,,SKC,0.00,VWS V14.01,2013-07-31 21:17:00,
2013-07-31 16:22:00,81.0,76.4,30.00,NNE,20,0.0,3.0,86,0.00,,SKC,0.00,VWS V14.01,2013-07-31 21:22:00,
2013-07-31 16:27:00,81.1,76.5,30.00,NNE,20,0.0,3.0,86,0.00,,SKC,0.00,VWS V14.01,2013-07-31 21:27:00,
2013-07-31 16:32:00,81.1,76.9,30.00,NNE,19,0.0,0.0,87,0.00,,SKC,0.00,VWS V14.01,2013-07-31 21:32:00,
2013-07-31 16:37:00,81.2,77.0,30.00,NNE,19,0.0,0.0,87,0.00,,SKC,0.00,VWS V14.01,2013-07-31 21:37:00,
2013-07-31 16:43:00,81.3,77.1,30.00,NNE,19,0.0,0.0,87,0.00,,SKC,0.00,VWS V14.01,2013-07-31 21:43:00,
2013-07-31 16:47:00,81.4,77.2,29.99,North,9,0.0,1.0,87,0.00,,SKC,0.00,VWS V14.01,2013-07-31 21:47:00,
2013-07-31 16:52:00,81.6,77.4,29.99,North,9,0.0,1.0,87,0.00,,SKC,0.00,VWS V14.01,2013-07-31 21:52:00,
2013-07-31 16:57:00,81.8,77.6,29.98,North,9,0.0,1.0,87,0.00,,SKC,0.00,VWS V14.01,2013-07-31 21:57:00,
2013-07-31 17:02:00,81.9,77.7,29.98,North,9,0.0,1.0,87,0.00,,SKC,0.00,VWS V14.01,2013-07-31 22:02:00,
2013-07-31 17:07:00,81.7,77.1,29.98,North,9,0.0,4.0,86,0.00,,SKC,0.00,VWS V14.01,2013-07-31 22:07:00,
2013-07-31 17:12:00,81.6,77.0,29.97,North,9,0.0,4.0,86,0.00,,SKC,0.00,VWS V14.01,2013-07-31 22:12:00,
2013-07-31 17:17:00,81.7,77.1,29.97,North,9,0.0,4.0,86,0.00,,SKC,0.00,VWS V14.01,2013-07-31 22:17:00,
2013-07-31 17:22:00,81.9,76.9,29.97,North,9,0.0,4.0,85,0.00,,SKC,0.00,VWS V14.01,2013-07-31 22:22:00,
2013-07-31 17:27:00,82.1,77.2,29.97,North,9,0.0,4.0,85,0.00,,SKC,0.00,VWS V14.01,2013-07-31 22:27:00,
2013-07-31 17:32:00,82.3,77.3,29.97,North,9,0.0,1.0,85,0.00,,SKC,0.00,VWS V14.01,2013-07-31 22:32:00,
2013-07-31 17:37:00,83.0,78.0,29.97,North,9,0.0,1.0,85,0.00,,SKC,0.00,VWS V14.01,2013-07-31 22:37:00,
2013-07-31 17:42:00,83.9,77.8,29.98,North,9,0.0,1.0,82,0.00,,SKC,0.00,VWS V14.01,2013-07-31 22:42:00,
2013-07-31 17:47:00,84.2,76.6,29.98,North,9,0.0,4.0,78,0.00,,SKC,0.00,VWS V14.01,2013-07-31 22:47:00,
2013-07-31 17:52:00,84.5,77.3,29.98,North,9,0.0,4.0,79,0.00,,SKC,0.00,VWS V14.01,2013-07-31 22:52:00,
2013-07-31 17:57:00,84.9,77.7,29.99,North,9,0.0,4.0,79,0.00,,SKC,0.00,VWS V14.01,2013-07-31 22:57:00,
2013-07-31 18:02:00,84.8,77.9,29.98,North,9,0.0,1.0,80,0.00,,SKC,0.00,VWS V14.01,2013-07-31 23:02:00,
2013-07-31 18:07:00,84.3,77.5,29.98,North,9,0.0,4.0,80,0.00,,SKC,0.00,VWS V14.01,2013-07-31 23:07:00,
2013-07-31 18:12:00,83.7,77.6,29.98,North,9,0.0,4.0,82,0.00,,SKC,0.00,VWS V14.01,2013-07-31 23:12:00,
2013-07-31 18:17:00,83.4,77.7,29.98,North,9,0.0,4.0,83,0.00,,SKC,0.00,VWS V14.01,2013-07-31 23:17:00,
2013-07-31 18:22:00,83.1,77.8,29.98,North,9,0.0,4.0,84,0.00,,SKC,0.00,VWS V14.01,2013-07-31 23:22:00,
2013-07-31 18:28:00,82.9,77.9,29.98,North,9,1.0,4.0,85,0.00,,SKC,0.00,VWS V14.01,2013-07-31 23:28:00,
2013-07-31 18:33:00,82.8,78.2,29.98,North,5,0.0,0.0,86,0.00,,SKC,0.00,VWS V14.01,2013-07-31 23:33:00,
2013-07-31 18:38:00,82.7,78.1,29.99,ESE,111,0.0,1.0,86,0.00,,SKC,0.00,VWS V14.01,2013-07-31 23:38:00,
2013-07-31 18:43:00,82.7,78.1,29.99,ESE,111,0.0,1.0,86,0.00,,SKC,0.00,VWS V14.01,2013-07-31 23:43:00,
2013-07-31 18:48:00,82.6,78.0,29.99,ESE,111,1.0,1.0,86,0.00,,SKC,0.00,VWS V14.01,2013-07-31 23:48:00,
2013-07-31 18:53:00,82.5,77.9,29.99,ESE,111,0.0,1.0,86,0.00,,SKC,0.00,VWS V14.01,2013-07-31 23:53:00,
2013-07-31 18:58:00,82.5,78.2,29.99,ESE,111,0.0,1.0,87,0.00,,SKC,0.00,VWS V14.01,2013-07-31 23:58:00,
2013-07-31 19:03:00,82.5,78.2,29.99,ESE,111,0.0,1.0,87,0.00,,SKC,0.00,VWS V14.01,2013-08-01 00:03:00,
2013-07-31 19:08:00,82.5,78.2,29.99,ESE,111,0.0,1.0,87,0.00,,SKC,0.00,VWS V14.01,2013-08-01 00:08:00,
2013-07-31 19:13:00,82.3,78.4,29.99,ESE,111,0.0,1.0,88,0.00,,SKC,0.00,VWS V14.01,2013-08-01 00:13:00,
2013-07-31 19:18:00,82.1,78.2,29.99,ESE,111,0.0,1.0,88,0.00,,SKC,0.00,VWS V14.01,2013-08-01 00:18:00,
2013-07-31 19:23:00,81.9,78.0,29.99,ESE,111,1.0,1.0,88,0.00,,SKC,0.00,VWS V14.01,2013-08-01 00:23:00,
2013-07-31 19:28:00,81.6,78.1,29.99,ESE,111,0.0,1.0,89,0.00,,SKC,0.00,VWS V14.01,2013-08-01 00:28:00,
2013-07-31 19:33:00,81.4,77.8,29.99,ESE,113,0.0,1.0,89,0.00,,SKC,0.00,VWS V14.01,2013-08-01 00:33:00,
2013-07-31 19:38:00,81.2,78.0,29.99,ESE,113,0.0,1.0,90,0.00,,SKC,0.00,VWS V14.01,2013-08-01 00:38:00,
2013-07-31 19:43:00,81.1,77.9,29.98,ESE,113,0.0,1.0,90,0.00,,SKC,0.00,VWS V14.01,2013-08-01 00:43:00,
2013-07-31 19:48:00,80.8,77.6,29.98,ESE,113,0.0,1.0,90,0.00,,SKC,0.00,VWS V14.01,2013-08-01 00:48:00,
2013-07-31 19:53:00,80.7,77.5,29.99,ESE,113,0.0,1.0,90,0.00,,SKC,0.00,VWS V14.01,2013-08-01 00:53:00,
2013-07-31 19:58:00,80.3,77.4,29.98,ESE,113,0.0,1.0,91,0.00,,SKC,0.00,VWS V14.01,2013-08-01 00:58:00,
2013-07-31 20:03:00,80.1,77.2,29.99,ESE,113,0.0,0.0,91,0.00,,SKC,0.00,VWS V14.01,2013-08-01 01:03:00,
2013-07-31 20:08:00,79.8,76.9,29.99,ESE,113,0.0,0.0,91,0.00,,SKC,0.00,VWS V14.01,2013-08-01 01:08:00,
2013-07-31 20:13:00,79.6,76.8,29.99,ESE,113,0.0,0.0,91,0.00,,SKC,0.00,VWS V14.01,2013-08-01 01:13:00,
2013-07-31 20:18:00,79.4,76.6,29.99,ESE,113,0.0,0.0,91,0.00,,SKC,0.00,VWS V14.01,2013-08-01 01:18:00,
2013-07-31 20:23:00,79.2,76.3,30.00,ESE,113,0.0,0.0,91,0.00,,SKC,0.00,VWS V14.01,2013-08-01 01:23:00,
2013-07-31 20:28:00,79.0,76.2,30.00,ESE,113,0.0,0.0,91,0.00,,SKC,0.00,VWS V14.01,2013-08-01 01:28:00,
2013-07-31 20:33:00,78.9,76.1,30.00,ESE,113,0.0,0.0,91,0.00,,SKC,0.00,VWS V14.01,2013-08-01 01:33:00,
2013-07-31 20:38:00,78.8,75.9,29.99,ESE,113,0.0,0.0,91,0.00,,SKC,0.00,VWS V14.01,2013-08-01 01:38:00,
2013-07-31 20:43:00,78.7,75.9,29.99,ESE,113,0.0,0.0,91,0.00,,SKC,0.00,VWS V14.01,2013-08-01 01:43:00,
2013-07-31 20:48:00,78.5,75.7,29.99,ESE,113,0.0,0.0,91,0.00,,SKC,0.00,VWS V14.01,2013-08-01 01:48:00,
2013-07-31 20:53:00,78.4,75.2,29.99,ESE,113,0.0,0.0,90,0.00,,SKC,0.00,VWS V14.01,2013-08-01 01:53:00,
2013-07-31 20:58:00,78.3,75.1,30.00,ESE,113,0.0,0.0,90,0.00,,SKC,0.00,VWS V14.01,2013-08-01 01:58:00,
2013-07-31 21:03:00,78.2,75.0,30.00,ESE,113,0.0,2.0,90,0.00,,SKC,0.00,VWS V14.01,2013-08-01 02:03:00,
2013-07-31 21:08:00,78.2,75.0,30.00,ESE,113,0.0,4.0,90,0.00,,SKC,0.00,VWS V14.01,2013-08-01 02:08:00,
2013-07-31 21:13:00,78.2,75.0,30.00,ESE,113,0.0,4.0,90,0.00,,SKC,0.00,VWS V14.01,2013-08-01 02:13:00,
2013-07-31 21:18:00,78.2,75.0,30.00,ESE,113,0.0,4.0,90,0.00,,SKC,0.00,VWS V14.01,2013-08-01 02:18:00,
2013-07-31 21:23:00,78.2,75.0,30.00,ESE,113,0.0,4.0,90,0.00,,SKC,0.00,VWS V14.01,2013-08-01 02:23:00,
2013-07-31 21:28:00,78.2,75.0,30.00,ESE,113,0.0,4.0,90,0.00,,SKC,0.00,VWS V14.01,2013-08-01 02:28:00,
2013-07-31 21:33:00,78.1,74.9,30.00,ESE,113,0.0,0.0,90,0.00,,SKC,0.00,VWS V14.01,2013-08-01 02:33:00,
2013-07-31 21:38:00,78.0,74.8,30.00,ESE,113,0.0,0.0,90,0.00,,SKC,0.00,VWS V14.01,2013-08-01 02:38:00,
2013-07-31 21:43:00,77.9,74.7,30.00,ESE,113,0.0,0.0,90,0.00,,SKC,0.00,VWS V14.01,2013-08-01 02:43:00,
2013-07-31 21:48:00,77.8,74.6,30.00,ESE,113,0.0,0.0,90,0.00,,SKC,0.00,VWS V14.01,2013-08-01 02:48:00,
2013-07-31 21:53:00,77.7,74.5,30.00,ESE,113,0.0,0.0,90,0.00,,SKC,0.00,VWS V14.01,2013-08-01 02:53:00,
2013-07-31 21:58:00,77.7,74.2,30.00,ESE,113,0.0,0.0,89,0.00,,SKC,0.00,VWS V14.01,2013-08-01 02:58:00,
2013-07-31 22:03:00,77.6,74.1,29.99,ESE,113,0.0,0.0,89,0.00,,SKC,0.00,VWS V14.01,2013-08-01 03:03:00,
2013-07-31 22:08:00,77.5,74.0,29.99,ESE,113,0.0,0.0,89,0.00,,SKC,0.00,VWS V14.01,2013-08-01 03:08:00,
2013-07-31 22:13:00,77.4,73.9,29.99,ESE,113,0.0,0.0,89,0.00,,SKC,0.00,VWS V14.01,2013-08-01 03:13:00,
2013-07-31 22:18:00,77.3,73.8,29.99,ESE,113,0.0,0.0,89,0.00,,SKC,0.00,VWS V14.01,2013-08-01 03:18:00,
2013-07-31 22:23:00,77.3,73.8,29.99,ESE,113,0.0,0.0,89,0.00,,SKC,0.00,VWS V14.01,2013-08-01 03:23:00,
2013-07-31 22:28:00,77.4,73.6,29.99,ESE,113,0.0,0.0,88,0.00,,SKC,0.00,VWS V14.01,2013-08-01 03:28:00,
2013-07-31 22:33:00,77.3,73.5,29.99,ESE,113,0.0,0.0,88,0.00,,SKC,0.00,VWS V14.01,2013-08-01 03:33:00,
2013-07-31 22:38:00,77.2,73.4,29.99,ESE,113,0.0,0.0,88,0.00,,SKC,0.00,VWS V14.01,2013-08-01 03:38:00,
2013-07-31 22:43:00,77.2,73.4,29.99,ESE,113,0.0,0.0,88,0.00,,SKC,0.00,VWS V14.01,2013-08-01 03:43:00,
2013-07-31 22:48:00,77.1,73.3,29.99,ESE,113,0.0,0.0,88,0.00,,SKC,0.00,VWS V14.01,2013-08-01 03:48:00,
2013-07-31 22:53:00,77.1,73.3,29.99,ESE,113,0.0,0.0,88,0.00,,SKC,0.00,VWS V14.01,2013-08-01 03:53:00,
2013-07-31 22:58:00,77.2,73.0,29.99,ESE,113,0.0,1.0,87,0.00,,SKC,0.00,VWS V14.01,2013-08-01 03:58:00,
2013-07-31 23:01:00,77.3,73.1,29.99,ESE,113,0.0,0.0,87,0.00,,SKC,0.00,VWS V14.01,2013-08-01 04:01:00,
2013-07-31 23:02:00,77.3,73.1,29.99,ESE,113,0.0,0.0,87,0.00,,SKC,0.00,VWS V14.01,2013-08-01 04:02:00,
2013-07-31 23:07:00,77.3,73.1,29.99,ESE,113,0.0,0.0,87,0.00,,SKC,0.00,VWS V14.01,2013-08-01 04:07:00,
2013-07-31 23:12:00,77.2,73.0,29.99,ESE,113,0.0,0.0,87,0.00,,SKC,0.00,VWS V14.01,2013-08-01 04:12:00,
2013-07-31 23:17:00,77.1,73.3,29.99,ESE,113,0.0,0.0,88,0.00,,SKC,0.00,VWS V14.01,2013-08-01 04:17:00,
2013-07-31 23:22:00,77.1,72.9,29.99,ESE,113,0.0,0.0,87,0.00,,SKC,0.00,VWS V14.01,2013-08-01 04:22:00,
2013-07-31 23:27:00,77.1,72.9,29.99,ESE,113,0.0,0.0,87,0.00,,SKC,0.00,VWS V14.01,2013-08-01 04:27:00,
2013-07-31 23:32:00,77.2,73.0,29.99,ESE,113,0.0,0.0,87,0.00,,SKC,0.00,VWS V14.01,2013-08-01 04:32:00,
2013-07-31 23:37:00,77.4,72.9,29.99,ESE,113,0.0,0.0,86,0.00,,SKC,0.00,VWS V14.01,2013-08-01 04:37:00,
2013-07-31 23:42:00,77.6,73.1,30.00,ESE,113,0.0,0.0,86,0.00,,SKC,0.00,VWS V14.01,2013-08-01 04:42:00,
2013-07-31 23:47:00,77.8,73.3,30.00,ESE,113,0.0,0.0,86,0.00,,SKC,0.00,VWS V14.01,2013-08-01 04:47:00,
2013-07-31 23:52:00,78.0,73.5,30.00,ESE,113,0.0,0.0,86,0.00,,SKC,0.00,VWS V14.01,2013-08-01 04:52:00,
2013-07-31 23:57:00,77.9,73.7,30.00,ESE,113,0.0,0.0,87,0.00,,SKC,0.00,VWS V14.01,2013-08-01 04:57:00,